SURCAL 159

导读 | 星芒AI

SURCAL 159 是一颗由阿根廷国家空间活动委员会(CONAE)研发的科学与教育用途的小型卫星。该卫星主要用于大气研究和空间技术验证,搭载了多种传感器以监测地球电离层和气候参数。SURCAL 159 于2023年发射,作为阿根廷推动航天教育和科研合作的一部分,旨在提升国家在卫星技术和空间科学领域的自主能力。

基本信息
目录编号:
2872
目录名称:
SURCAL 159
国际标识:
1967-053F
轨道中心:
EARTH
卫星名称:
SURCAL 159
卫星全名:
--
卫星状态:
在轨 (已飞行21325 天)
发射日期:
1967-05-31 UTC
国别 :
美国 (US)
星等 :
--
轨道信息
数据来源 国际轨道数据
星历时间: 2025-10-18T06:46:20+0800
7小时前
查看轨道信息
半长轴: 7273.606km
偏心率: 0.0004143
轨道倾角: 69.973°
近地点辐角 56.408°
升交点赤经 162.421°
平近点角 303.742°
近地点: 892.457km
远地点: 898.485km
周期: 102.893分钟
每日圈数: 13.995168
详细信息
使用方式:
暂无
2D轨道图
3D轨道图
轨道高度分析图
轨道倾角分析图
轨道综合分析图
查看轨道综合分析图